CW6747 Weather Reports


Display with metric or nautical units.
time (UTC)temp
F
wind
direction
speed
MPH
gust
MPH
rain 1hr
in
rain 24hr
in
rain mn
in
humidity
%
barometer
mb
20260505173027 76 284 12.0 26.0 0.00 0.00 0.00 37 1007.2
20260505171530 75 22 11.0 23.0 0.00 0.00 0.00 42 1007.1
20260505170031 75 5 8.0 25.0 0.00 0.00 0.00 44 1007.0
20260505164534 74 25 16.0 26.0 0.00 0.00 0.00 45 1007.4
20260505163036 73 31 13.0 27.0 0.00 0.00 0.00 44 1007.5
20260505161528 73 5 13.0 25.0 0.00 0.00 0.00 45 1007.7
20260505153034 72 349 13.0 22.0 0.00 0.00 0.00 48 1008.5
20260505151530 71 42 12.0 24.0 0.00 0.00 0.00 50 1008.4
20260505124528 66 20 10.0 21.0 0.00 0.00 0.00 56 1008.2
20260505123028 65 10 9.0 18.0 0.00 0.00 0.00 58 1008.2
20260505121532 64 29 8.0 25.0 0.00 0.00 0.00 59 1008.2
20260505120039 63 10 8.0 25.0 0.00 0.00 0.00 60 1008.3
20260505114527 63 355 7.0 18.0 0.00 0.00 0.00 60 1008.3
20260505113027 62 16 9.0 17.0 0.00 0.00 0.00 61 1008.2
20260505111531 61 355 5.0 12.0 0.00 0.00 0.00 65 1008.2
20260505101530 62 20 10.0 18.0 0.00 0.00 0.00 59 1007.5
20260505100031 63 342 12.0 21.0 0.00 0.00 0.00 57 1007.4
20260505094528 64 10 11.0 22.0 0.00 0.00 0.00 54 1007.5
20260505093030 65 15 12.0 25.0 0.00 0.00 0.00 54 1007.5
20260505091531 64 20 12.0 19.0 0.00 0.00 0.00 55 1007.3
20260505090030 63 355 9.0 18.0 0.00 0.00 0.00 56 1007.2
20260505084543 63 248 8.0 19.0 0.00 0.00 0.00 57 1007.0
20260505083043 63 355 8.0 16.0 0.00 0.00 0.00 58 1007.1
20260505081537 63 355 5.0 18.0 0.00 0.00 0.00 57 1007.1
20260505080040 64 344 5.0 20.0 0.00 0.00 0.00 56 1007.3
20260505074529 63 254 7.0 17.0 0.00 0.00 0.00 57 1007.0
20260505073036 63 347 7.0 16.0 0.00 0.00 0.00 57 1006.8
20260505071540 63 360 7.0 20.0 0.00 0.00 0.00 57 1006.6
20260505070040 63 38 9.0 16.0 0.00 0.00 0.00 57 1006.7
20260505064528 64 12 9.0 16.0 0.00 0.00 0.00 56 1006.7
20260505063036 64 19 9.0 20.0 0.00 0.00 0.00 55 1006.7
20260505061532 64 338 8.0 20.0 0.00 0.00 0.00 55 1006.8
20260505060051 64 348 5.0 19.0 0.00 0.00 0.00 55 1006.9
20260505054528 64 318 9.0 18.0 0.00 0.00 0.00 55 1006.9
20260505053032 64 344 9.0 18.0 0.00 0.00 0.00 55 1007.2
20260505051530 65 22 6.0 16.0 0.00 0.00 0.00 55 1007.3
20260505041532 65 355 7.0 18.0 0.00 0.00 0.00 53 1007.5
20260505040057 65 20 6.0 14.0 0.00 0.00 0.00 54 1007.5
20260505034527 65 360 7.0 19.0 0.00 0.00 0.00 53 1007.4
20260505033034 65 9 7.0 18.0 0.00 0.00 0.00 53 1007.1
20260505031530 65 344 7.0 20.0 0.00 0.00 0.00 54 1007.2
20260505030028 65 26 5.0 11.0 0.00 0.00 0.00 54 1007.3
20260505024529 64 352 6.0 15.0 0.00 0.00 0.00 55 1007.3
20260505023030 61 319 5.0 11.0 0.00 0.00 0.00 60 1007.3
20260505021528 62 0 0.0 2.0 0.00 0.00 0.00 64 1007.3
20260505020038 63 0 0.0 2.0 0.00 0.00 0.00 63 1007.6
20260505014541 64 45 2.0 11.0 0.00 0.00 0.00 59 1007.4
20260505013038 67 21 9.0 15.0 0.00 0.00 0.00 49 1007.6
20260505011536 67 30 6.0 14.0 0.00 0.00 0.00 46 1007.2
20260505010030 68 344 6.0 15.0 0.00 0.00 0.00 46 1006.8
20260505004540 68 19 5.0 14.0 0.00 0.00 0.00 45 1006.9
20260505003049 68 9 7.0 12.0 0.00 0.00 0.00 44 1006.7
20260505001531 69 17 6.0 14.0 0.00 0.00 0.00 44 1006.7
20260505000034 69 34 9.0 14.0 0.00 0.00 0.00 43 1006.5
20260504234528 69 13 5.0 11.0 0.00 0.00 0.00 44 1006.3
20260504233029 69 333 3.0 8.0 0.00 0.00 0.00 44 1006.3
20260504231528 70 24 10.0 16.0 0.00 0.00 0.00 42 1006.2
20260504230031 70 348 3.0 9.0 0.00 0.00 0.00 43 1006.1
20260504224530 70 27 8.0 15.0 0.00 0.00 0.00 41 1006.2
20260504223032 71 352 8.0 22.0 0.00 0.00 0.00 39 1006.0
20260504221529 71 36 4.0 17.0 0.00 0.00 0.00 39 1005.8
20260504220032 72 48 11.0 21.0 0.00 0.00 0.00 37 1005.9
20260504214527 73 5 11.0 19.0 0.00 0.00 0.00 37 1005.9
20260504213029 72 5 6.0 17.0 0.00 0.00 0.00 36 1005.8
20260504211539 72 24 8.0 18.0 0.00 0.00 0.00 39 1005.9
20260504210028 72 61 9.0 20.0 0.00 0.00 0.00 38 1006.0
20260504204529 72 42 12.0 18.0 0.00 0.00 0.00 35 1006.2
20260504203027 71 22 6.0 18.0 0.00 0.00 0.00 34 1006.2
20260504201529 73 44 12.0 22.0 0.00 0.00 0.00 32 1006.2
20260504200030 72 30 13.0 20.0 0.00 0.00 0.00 31 1006.5
20260504194528 72 45 11.0 17.0 0.00 0.00 0.00 33 1006.7
20260504193030 72 19 9.0 16.0 0.00 0.00 0.00 32 1007.0
20260504191528 71 15 8.0 20.0 0.00 0.00 0.00 36 1007.2
20260504190027 71 24 10.0 20.0 0.00 0.00 0.00 38 1007.4
20260504184536 71 76 12.0 20.0 0.00 0.00 0.00 35 1007.5
20260504183028 69 30 9.0 22.0 0.00 0.00 0.00 37 1007.8
20260504181534 70 11 12.0 17.0 0.00 0.00 0.00 39 1007.9
20260504180030 70 42 8.0 19.0 0.00 0.00 0.00 40 1008.2
20260504174527 69 43 12.0 20.0 0.00 0.00 0.00 39 1008.3